Location: Arbon
(43.0005°N, 0.7472°E)
Time: 15:42:29
(UTC+00:00)

Envisat - Pass Details

Date: 05 November 2020
Orbit: 764 x 766 km, 98.1° (Epoch: 30 November)

Event Time Altitude Azimuth Distance (km) Brightness Sun altitude
Rises 17:40:07 0° 187° (S) 3,218 6.5 -10.7°
Reaches altitude 10° 17:42:34 10° 195° (SSW) 2,296 5.8 -11.2°
Maximum altitude 17:47:15 38° 263° (W) 1,166 4.7 -12.0°
Drops below altitude 10° 17:51:59 10° 331° (NNW) 2,311 5.7 -12.9°
Sets 17:54:28 0° 339° (NNW) 3,242 6.4 -13.3°
